Terug naar catalogus

STARLINK-5019

ActiefCommunicatieVLEO
NORAD 55407·PAYLOAD·🇺🇸 United States

Gelanceerd Jan 31, 2023 vanaf Vandenberg Space Force Base

Loading…

Volgende Passages (komende 24 uur)

TLE

VersSource: CelesTrak SupGP

Epoch: Sep 15, 2026, 02:50 UTC

1 55407C 23014S   26258.11854167  .00020636  00000+0  17290-2 0  2582
2 55407  70.0001 306.9283 0003691 266.2263 244.7514 14.98327183    12

Volg STARLINK-5019 in realtime met AllMySat

Download on the App Store